User: anonymous   Login
Location: Podia
(1.5569°N, 32.3469°E)
Time: 23:28:02
(UTC+00:00)
Language:

SL-24 R/B - Orbit

View from above orbital plane
View from above orbital plane
View from above satellite
View from above satellite

Ground track
Ground track

The orbit data is extracted from the following two-line orbital elements,

1 31123U 07012G   21127.59411826  .00000017  00000-0  19268-4 0  9997
2 31123  98.0064 127.4865 0313639  68.3398  41.8178 14.12619438724612
Epoch (UTC): 07 May 2021 14:15:31
Eccentricity: 0.0313639
inclination: 98.0064°
perigee height: 624 km
apogee height: 1077 km
right ascension of ascending node: 127.4865°
argument of perigee: 68.3398°
revolutions per day: 14.12619438
mean anomaly at epoch: 41.8178°
orbit number at epoch: 72461

The dashed part of the orbit path shows where the satellite is in the earth's shadow,  

DLR